LINCON Weather Reports


Display with metric or nautical units.
time (UTC)temp
F
wind
direction
speed
MPH
gust
MPH
rain 1hr
in
rain 24hr
in
rain mn
in
humidity
%
barometer
mb
20260510043515 57 343 6.0 15.0 0.00 0.00 0.00 91 1013.8
20260510043016 57 340 9.0 16.0 0.00 0.00 0.00 91 1013.7
20260510042516 57 337 7.0 16.0 0.00 0.00 0.00 91 1013.7
20260510042016 57 351 9.0 16.0 0.00 0.00 0.00 91 1013.7
20260510041516 57 343 10.0 15.0 0.00 0.00 0.00 91 1013.6
20260510041017 57 355 9.0 16.0 0.00 0.00 0.00 91 1013.4
20260510040515 57 341 5.0 16.0 0.00 0.00 0.00 91 1013.5
20260510040015 57 350 8.0 16.0 0.00 0.00 0.00 91 1013.4
20260510035516 57 345 9.0 16.0 0.00 0.00 0.00 91 1013.4
20260510034515 57 350 12.0 16.0 0.00 0.00 0.00 91 1013.2
20260510034015 57 340 11.0 15.0 0.00 0.00 0.00 90 1013.1
20260510033515 57 347 10.0 15.0 0.00 0.00 0.00 90 1013.0
20260510033016 57 316 8.0 18.0 0.00 0.00 0.00 90 1013.0
20260510032515 57 336 11.0 18.0 0.00 0.00 0.00 89 1012.9
20260510032015 58 344 9.0 18.0 0.00 0.00 0.00 89 1012.8
20260510031516 58 350 10.0 19.0 0.00 0.00 0.00 89 1012.8
20260510031015 58 336 13.0 19.0 0.00 0.00 0.00 88 1012.7
20260510030515 58 331 10.0 19.0 0.00 0.00 0.00 88 1012.7
20260510030016 58 338 9.0 18.0 0.00 0.00 0.00 87 1012.6
20260510025516 58 333 11.0 17.0 0.00 0.00 0.00 87 1012.5
20260510025016 59 331 11.0 19.0 0.00 0.00 0.00 86 1012.4
20260510024516 59 347 8.0 19.0 0.00 0.00 0.00 86 1012.4
20260510024016 59 340 10.0 19.0 0.00 0.00 0.00 86 1012.4
20260510023515 59 337 9.0 21.0 0.00 0.00 0.00 86 1012.5
20260510023017 59 341 11.0 21.0 0.00 0.00 0.00 85 1012.5
20260510022515 59 338 13.0 21.0 0.00 0.00 0.00 85 1012.4
20260510022015 60 341 12.0 21.0 0.00 0.00 0.00 85 1012.5
20260510021515 60 336 14.0 21.0 0.00 0.00 0.00 84 1012.6
20260510021015 60 330 15.0 21.0 0.00 0.00 0.00 84 1012.6
20260510020515 60 336 12.0 18.0 0.00 0.00 0.00 83 1012.6
20260510020015 61 341 11.0 22.0 0.00 0.00 0.00 82 1012.6
20260510015515 61 331 13.0 22.0 0.00 0.00 0.00 82 1012.5
20260510015015 61 352 13.0 22.0 0.00 0.00 0.00 81 1012.5
20260510014515 61 348 12.0 19.0 0.00 0.00 0.00 81 1012.6
20260510014015 61 338 11.0 21.0 0.00 0.00 0.00 81 1012.6
20260510013517 61 344 12.0 21.0 0.00 0.00 0.00 80 1012.6
20260510013016 61 341 13.0 21.0 0.00 0.00 0.00 80 1012.6
20260510012015 62 345 11.0 23.0 0.00 0.00 0.00 78 1012.6
20260510011515 62 331 13.0 23.0 0.00 0.00 0.00 77 1012.6
20260510011017 63 343 14.0 19.0 0.00 0.00 0.00 76 1012.6
20260510010515 63 345 15.0 21.0 0.00 0.00 0.00 75 1012.6
20260510010016 63 341 14.0 21.0 0.00 0.00 0.00 75 1012.6
20260510005516 63 343 11.0 21.0 0.00 0.00 0.00 75 1012.7
20260510005016 63 337 11.0 25.0 0.00 0.00 0.00 75 1012.7
20260510004516 63 329 13.0 25.0 0.00 0.00 0.00 74 1012.6
20260510004015 64 352 16.0 25.0 0.00 0.00 0.00 73 1012.6
20260510003515 64 333 13.0 21.0 0.00 0.00 0.00 72 1012.7
20260510003015 64 343 11.0 22.0 0.00 0.00 0.00 71 1012.7
20260510002516 65 337 12.0 22.0 0.00 0.00 0.00 70 1012.7
20260510002016 65 333 12.0 22.0 0.00 0.00 0.00 69 1012.7
20260510001515 65 345 11.0 22.0 0.00 0.00 0.00 69 1012.6
20260510001015 65 336 13.0 22.0 0.00 0.00 0.00 68 1012.7
20260510000515 65 0 14.0 22.0 0.00 0.00 0.00 68 1012.7
20260510000015 65 334 13.0 25.0 0.00 0.00 0.00 68 1012.6
20260509235516 65 330 12.0 25.0 0.00 0.00 0.00 69 1012.6
20260509235015 65 343 15.0 25.0 0.00 0.00 0.00 70 1012.7
20260509234515 65 334 13.0 22.0 0.00 0.00 0.00 71 1012.7
20260509234015 65 336 15.0 22.0 0.00 0.00 0.00 71 1012.7
20260509233515 65 343 12.0 22.0 0.00 0.00 0.00 71 1012.7
20260509233015 65 343 14.0 21.0 0.00 0.00 0.00 71 1012.8
20260509232515 65 343 15.0 24.0 0.00 0.00 0.00 70 1012.7
20260509232015 66 341 11.0 24.0 0.00 0.00 0.00 70 1012.8
20260509231520 66 352 12.0 24.0 0.00 0.00 0.00 69 1012.9
20260509231015 66 331 14.0 23.0 0.00 0.00 0.00 68 1012.9
20260509230515 66 343 14.0 21.0 0.00 0.00 0.00 68 1013.1
20260509230017 67 333 10.0 20.0 0.00 0.00 0.00 68 1013.1
20260509225515 67 345 12.0 23.0 0.00 0.00 0.00 66 1013.1
20260509225015 67 331 11.0 23.0 0.00 0.00 0.00 67 1013.2
20260509224515 67 345 14.0 23.0 0.00 0.00 0.00 65 1013.2
20260509224015 68 345 10.0 22.0 0.00 0.00 0.00 63 1013.2
20260509223515 68 341 10.0 21.0 0.00 0.00 0.00 61 1013.2
20260509223015 68 338 13.0 21.0 0.00 0.00 0.00 60 1013.1
20260509222517 68 343 10.0 21.0 0.00 0.00 0.00 60 1013.1
20260509222016 68 340 11.0 20.0 0.00 0.00 0.00 60 1013.1
20260509221515 69 348 13.0 18.0 0.00 0.00 0.00 60 1012.9
20260509221017 69 344 12.0 18.0 0.00 0.00 0.00 60 1013.0
20260509220515 69 312 11.0 17.0 0.00 0.00 0.00 60 1013.1
20260509220016 69 340 8.0 17.0 0.00 0.00 0.00 63 1013.3
20260509215515 68 334 11.0 17.0 0.00 0.00 0.00 62 1013.4
20260509215017 68 1 11.0 27.0 0.00 0.00 0.00 63 1013.5
20260509214515 68 317 11.0 27.0 0.00 0.00 0.00 65 1013.7
20260509214017 68 343 16.0 27.0 0.00 0.00 0.00 63 1013.8
20260509213516 68 326 10.0 25.0 0.00 0.00 0.00 64 1013.8
20260509213015 68 326 13.0 25.0 0.00 0.00 0.00 64 1013.9
20260509212515 68 344 15.0 28.0 0.00 0.00 0.00 64 1014.0
20260509212015 68 341 15.0 28.0 0.00 0.00 0.00 65 1014.0
20260509211515 67 338 10.0 28.0 0.00 0.00 0.00 67 1014.1
20260509211016 68 345 15.0 24.0 0.00 0.00 0.00 64 1014.0
20260509210515 68 345 13.0 24.0 0.00 0.00 0.00 64 1014.2
20260509210015 68 330 11.0 24.0 0.00 0.00 0.00 65 1014.2
20260509205515 68 313 13.0 24.0 0.00 0.00 0.00 65 1014.2
20260509205015 68 340 14.0 24.0 0.00 0.00 0.00 64 1014.3
20260509204515 69 347 13.0 23.0 0.00 0.00 0.00 63 1014.4
20260509204015 69 337 12.0 23.0 0.00 0.00 0.00 65 1014.3
20260509203516 68 340 14.0 22.0 0.00 0.00 0.00 64 1014.3
20260509203016 68 341 13.0 25.0 0.00 0.00 0.00 64 1014.4
20260509202515 69 333 12.0 25.0 0.00 0.00 0.00 64 1014.5
20260509202015 68 341 11.0 25.0 0.00 0.00 0.00 65 1014.5
20260509201515 68 340 18.0 23.0 0.00 0.00 0.00 64 1014.4
20260509201016 68 350 16.0 25.0 0.00 0.00 0.00 64 1014.4
20260509200515 68 340 14.0 25.0 0.00 0.00 0.00 63 1014.4
20260509200015 68 357 16.0 25.0 0.00 0.00 0.00 63 1014.5
20260509195515 69 341 14.0 23.0 0.00 0.00 0.00 61 1014.6
20260509195015 70 341 14.0 19.0 0.00 0.00 0.00 58 1014.7
20260509194515 70 341 12.0 15.0 0.00 0.00 0.00 57 1014.7
20260509194015 71 337 8.0 18.0 0.00 0.00 0.00 57 1014.7
20260509193515 70 343 10.0 18.0 0.00 0.00 0.00 57 1014.8
20260509193015 70 348 10.0 18.0 0.00 0.00 0.00 54 1015.0
20260509192515 71 329 10.0 15.0 0.00 0.00 0.00 56 1015.0
20260509192015 71 327 7.0 15.0 0.00 0.00 0.00 57 1015.1
20260509191515 71 344 9.0 18.0 0.00 0.00 0.00 55 1015.2
20260509191015 71 344 7.0 18.0 0.00 0.00 0.00 55 1015.2
20260509190515 72 355 12.0 18.0 0.00 0.00 0.00 54 1015.3
20260509190015 72 345 11.0 18.0 0.00 0.00 0.00 56 1015.3
20260509185515 72 345 8.0 17.0 0.00 0.00 0.00 54 1015.4
20260509185017 72 334 9.0 17.0 0.00 0.00 0.00 54 1015.5
20260509184515 72 347 7.0 17.0 0.00 0.00 0.00 57 1015.5
20260509184015 72 343 8.0 17.0 0.00 0.00 0.00 54 1015.6
20260509183515 72 348 8.0 19.0 0.00 0.00 0.00 57 1015.5
20260509183015 71 344 8.0 19.0 0.00 0.00 0.00 57 1015.6
20260509182515 71 351 7.0 19.0 0.00 0.00 0.00 55 1015.5
20260509182015 72 338 13.0 17.0 0.00 0.00 0.00 53 1015.5
20260509181515 73 343 11.0 17.0 0.00 0.00 0.00 51 1015.5
20260509181015 74 344 8.0 17.0 0.00 0.00 0.00 50 1015.6
20260509180515 75 345 11.0 17.0 0.00 0.00 0.00 49 1015.8
20260509180016 76 340 11.0 14.0 0.00 0.00 0.00 49 1015.7
20260509175516 77 340 6.0 12.0 0.00 0.00 0.00 51 1015.7
20260509175015 76 348 5.0 12.0 0.00 0.00 0.00 52 1015.7
20260509174515 76 347 8.0 12.0 0.00 0.00 0.00 52 1015.6
20260509174015 76 352 4.0 8.0 0.00 0.00 0.00 54 1015.7
20260509173516 75 341 5.0 8.0 0.00 0.00 0.00 55 1015.8
20260509173016 75 355 3.0 7.0 0.00 0.00 0.00 56 1015.8
20260509172515 74 329 0.0 7.0 0.00 0.00 0.00 57 1016.0
20260509172015 74 340 2.0 7.0 0.00 0.00 0.00 58 1016.0
20260509171515 73 327 0.0 7.0 0.00 0.00 0.00 59 1015.8
20260509171015 72 0 0.0 0.0 0.00 0.00 0.00 60 1015.7
20260509170514 72 0 0.0 0.0 0.00 0.00 0.00 60 1015.8
20260509170015 72 0 0.0 0.0 0.00 0.00 0.00 62 1015.9
20260509165514 71 0 0.0 0.0 0.00 0.00 0.00 63 1016.0
20260509165015 70 0 0.0 0.0 0.00 0.00 0.00 65 1015.9
20260509164515 70 0 0.0 0.0 0.00 0.00 0.00 66 1015.9
20260509164015 69 0 0.0 0.0 0.00 0.00 0.00 67 1016.0
20260509163515 69 0 0.0 0.0 0.00 0.00 0.00 68 1015.9
20260509163015 69 0 0.0 3.0 0.00 0.00 0.00 69 1015.9
20260509162515 69 0 0.0 3.0 0.00 0.00 0.00 70 1015.8
20260509162015 68 319 0.0 3.0 0.00 0.00 0.00 73 1015.9
20260509161515 67 23 0.0 2.0 0.00 0.00 0.00 76 1015.8
20260509161015 66 0 0.0 0.0 0.00 0.00 0.00 78 1015.8
20260509160515 65 0 0.0 0.0 0.00 0.00 0.00 80 1015.7
20260509160015 64 0 0.0 0.0 0.00 0.00 0.00 82 1015.8
20260509155514 63 0 0.0 0.0 0.00 0.00 0.00 83 1015.7
20260509155015 62 0 0.0 0.0 0.00 0.00 0.00 84 1015.7
20260509154015 61 0 0.0 0.0 0.00 0.00 0.00 87 1016.0
20260509153517 60 0 0.0 0.0 0.00 0.00 0.00 88 1016.0
20260509153015 60 0 0.0 0.0 0.00 0.00 0.00 90 1016.0
20260509152515 59 0 0.0 0.0 0.00 0.00 0.00 91 1016.1
20260509152015 58 0 0.0 0.0 0.00 0.00 0.00 93 1016.1
20260509151515 57 0 0.0 0.0 0.00 0.00 0.00 93 1016.1
20260509151014 56 0 0.0 0.0 0.00 0.00 0.00 92 1016.1
20260509150515 55 0 0.0 0.0 0.00 0.00 0.00 92 1016.1
20260509150015 55 0 0.0 0.0 0.00 0.00 0.00 92 1016.1
20260509145514 55 0 0.0 0.0 0.00 0.00 0.00 93 1016.2
20260509145016 55 0 0.0 0.0 0.00 0.00 0.00 93 1016.3
20260509144515 55 0 0.0 0.0 0.00 0.00 0.00 94 1016.2
20260509144015 55 0 0.0 0.0 0.00 0.00 0.00 94 1016.4
20260509143514 55 0 0.0 0.0 0.00 0.00 0.00 95 1016.5
20260509143014 54 0 0.0 0.0 0.00 0.00 0.00 96 1016.7
20260509142515 53 0 0.0 0.0 0.00 0.00 0.00 96 1016.7
20260509142015 53 0 0.0 0.0 0.00 0.00 0.00 96 1016.5
20260509141515 52 0 0.0 0.0 0.00 0.00 0.00 96 1016.4
20260509141015 52 0 0.0 0.0 0.00 0.00 0.00 96 1016.4
20260509140515 52 0 0.0 0.0 0.00 0.00 0.00 96 1016.5
20260509140015 52 0 0.0 0.0 0.00 0.00 0.00 97 1016.5
20260509135515 51 0 0.0 0.0 0.00 0.00 0.00 97 1016.5
20260509135015 51 0 0.0 0.0 0.00 0.00 0.00 97 1016.5
20260509134514 50 0 0.0 0.0 0.00 0.00 0.00 97 1016.3
20260509134015 50 0 0.0 0.0 0.00 0.00 0.00 97 1016.3
20260509133515 51 0 0.0 0.0 0.00 0.00 0.00 97 1016.3
20260509133014 51 0 0.0 0.0 0.00 0.00 0.00 97 1016.4
20260509132514 50 0 0.0 0.0 0.00 0.00 0.00 97 1016.4
20260509132014 50 0 0.0 0.0 0.00 0.00 0.00 97 1016.4
20260509131514 49 0 0.0 0.0 0.00 0.00 0.00 97 1016.4
20260509131014 49 0 0.0 0.0 0.00 0.00 0.00 97 1016.4
20260509130514 49 0 0.0 0.0 0.00 0.00 0.00 97 1016.4
20260509130014 49 0 0.0 0.0 0.00 0.00 0.00 97 1016.4
20260509125514 49 0 0.0 0.0 0.00 0.00 0.00 97 1016.5
20260509125015 49 0 0.0 0.0 0.00 0.00 0.00 97 1016.5
20260509124515 49 0 0.0 0.0 0.00 0.00 0.00 97 1016.6
20260509124015 49 0 0.0 0.0 0.00 0.00 0.00 97 1016.7
20260509123514 49 0 0.0 0.0 0.00 0.00 0.00 97 1016.7
20260509123015 49 0 0.0 0.0 0.00 0.00 0.00 97 1016.7
20260509122514 49 0 0.0 0.0 0.00 0.00 0.00 97 1016.7
20260509122015 49 0 0.0 0.0 0.00 0.00 0.00 97 1016.8
20260509121514 49 0 0.0 0.0 0.00 0.00 0.00 97 1016.8
20260509121014 49 0 0.0 0.0 0.00 0.00 0.00 97 1016.9
20260509120514 49 0 0.0 0.0 0.00 0.00 0.00 97 1017.0
20260509120015 49 0 0.0 0.0 0.00 0.00 0.00 97 1017.0
20260509115515 49 0 0.0 0.0 0.00 0.00 0.00 97 1017.0
20260509115015 49 0 0.0 0.0 0.00 0.00 0.00 97 1017.0
20260509114515 49 0 0.0 0.0 0.00 0.00 0.00 97 1017.1
20260509114015 49 0 0.0 0.0 0.00 0.00 0.00 97 1017.2
20260509113515 49 0 0.0 0.0 0.00 0.00 0.00 97 1017.4
20260509113016 49 0 0.0 0.0 0.00 0.00 0.00 97 1017.4
20260509112515 50 0 0.0 0.0 0.00 0.00 0.00 97 1017.4
20260509112015 49 0 0.0 0.0 0.00 0.00 0.00 97 1017.2
20260509111514 49 0 0.0 0.0 0.00 0.00 0.00 97 1017.2
20260509111015 49 0 0.0 0.0 0.00 0.00 0.00 97 1017.2
20260509110515 49 0 0.0 0.0 0.00 0.00 0.00 97 1017.1
20260509110015 49 0 0.0 0.0 0.00 0.00 0.00 97 1017.2
20260509105514 49 0 0.0 0.0 0.00 0.00 0.00 97 1017.3
20260509105016 49 0 0.0 0.0 0.00 0.00 0.00 97 1017.3
20260509104515 49 0 0.0 0.0 0.00 0.00 0.00 97 1017.2
20260509104015 49 0 0.0 0.0 0.00 0.00 0.00 97 1017.2
20260509103515 49 0 0.0 0.0 0.00 0.00 0.00 96 1017.2
20260509103016 49 0 0.0 0.0 0.00 0.00 0.00 96 1017.4
20260509102515 49 0 0.0 0.0 0.00 0.00 0.00 96 1017.4
20260509102015 49 0 0.0 0.0 0.00 0.00 0.00 96 1017.4
20260509101515 49 0 0.0 0.0 0.00 0.00 0.00 96 1017.5
20260509101014 49 0 0.0 0.0 0.00 0.00 0.00 96 1017.5
20260509100515 49 0 0.0 0.0 0.00 0.00 0.00 96 1017.6
20260509100015 49 0 0.0 0.0 0.00 0.00 0.00 96 1017.8
20260509095515 49 0 0.0 0.0 0.00 0.00 0.00 96 1017.8
20260509095015 49 0 0.0 0.0 0.00 0.00 0.00 96 1017.9
20260509094515 49 0 0.0 0.0 0.00 0.00 0.00 96 1017.8
20260509094015 49 0 0.0 0.0 0.00 0.00 0.00 96 1017.8
20260509093515 49 0 0.0 0.0 0.00 0.00 0.00 96 1017.9
20260509093015 50 0 0.0 0.0 0.00 0.00 0.00 96 1017.9
20260509092515 50 0 0.0 0.0 0.00 0.00 0.00 96 1017.9
20260509092015 50 0 0.0 0.0 0.00 0.00 0.00 95 1017.9
20260509091515 50 0 0.0 0.0 0.00 0.00 0.00 95 1018.0
20260509091015 50 0 0.0 0.0 0.00 0.00 0.00 95 1018.0
20260509090515 50 0 0.0 0.0 0.00 0.00 0.00 95 1018.0
20260509090015 50 0 0.0 0.0 0.00 0.00 0.00 95 1018.0
20260509085515 50 0 0.0 0.0 0.00 0.00 0.00 95 1018.0
20260509085015 50 0 0.0 0.0 0.00 0.00 0.00 95 1018.0
20260509084515 50 0 0.0 0.0 0.00 0.00 0.00 95 1017.9
20260509084015 50 0 0.0 0.0 0.00 0.00 0.00 95 1017.9
20260509083515 50 0 0.0 0.0 0.00 0.00 0.00 94 1017.9
20260509083015 50 0 0.0 0.0 0.00 0.00 0.00 94 1018.1
20260509082515 51 0 0.0 0.0 0.00 0.00 0.00 94 1018.1
20260509082015 51 0 0.0 0.0 0.00 0.00 0.00 94 1018.2
20260509081515 51 0 0.0 0.0 0.00 0.00 0.00 94 1018.1
20260509081015 51 0 0.0 0.0 0.00 0.00 0.00 94 1018.1
20260509080515 51 0 0.0 0.0 0.00 0.00 0.00 94 1018.1
20260509080015 51 0 0.0 0.0 0.00 0.00 0.00 94 1018.1
20260509075515 52 0 0.0 0.0 0.00 0.00 0.00 94 1018.1
20260509075015 52 0 0.0 0.0 0.00 0.00 0.00 94 1018.0
20260509074515 52 0 0.0 0.0 0.00 0.00 0.00 94 1018.1
20260509074015 52 0 0.0 0.0 0.00 0.00 0.00 94 1018.0
20260509073515 52 0 0.0 0.0 0.00 0.00 0.00 94 1018.1
20260509073015 52 0 0.0 5.0 0.00 0.00 0.00 94 1018.1
20260509072515 52 0 0.0 5.0 0.00 0.00 0.00 95 1018.1
20260509072014 52 56 0.0 5.0 0.00 0.00 0.00 94 1018.2
20260509071515 51 0 0.0 0.0 0.00 0.00 0.00 94 1018.3
20260509071014 51 0 0.0 0.0 0.00 0.00 0.00 93 1018.3
20260509070514 51 0 0.0 0.0 0.00 0.00 0.00 93 1018.3
20260509070014 52 0 0.0 0.0 0.00 0.00 0.00 93 1018.3
20260509065514 52 0 0.0 0.0 0.00 0.00 0.00 93 1018.4
20260509065015 52 0 0.0 0.0 0.00 0.00 0.00 92 1018.4
20260509064514 52 0 0.0 0.0 0.00 0.00 0.00 92 1018.5
20260509064015 52 0 0.0 0.0 0.00 0.00 0.00 91 1018.5
20260509063514 52 0 0.0 0.0 0.00 0.00 0.00 91 1018.6
20260509063014 52 0 0.0 0.0 0.00 0.00 0.00 91 1018.6
20260509062514 52 0 0.0 0.0 0.00 0.00 0.00 91 1018.6
20260509062014 53 0 0.0 0.0 0.00 0.00 0.00 90 1018.7
20260509061514 53 0 0.0 0.0 0.00 0.00 0.00 90 1018.7
20260509061014 52 0 0.0 0.0 0.00 0.00 0.00 90 1018.7
20260509060514 52 0 0.0 0.0 0.00 0.00 0.00 90 1018.8
20260509060014 53 0 0.0 0.0 0.00 0.00 0.00 90 1018.8
20260509055515 53 0 0.0 0.0 0.00 0.00 0.00 89 1018.7
20260509055015 53 0 0.0 0.0 0.00 0.00 0.00 89 1018.8
20260509054514 53 0 0.0 0.0 0.00 0.00 0.00 88 1018.8
20260509054014 53 0 0.0 0.0 0.00 0.00 0.00 88 1018.7
20260509053515 53 0 0.0 0.0 0.00 0.00 0.00 87 1018.7
20260509053015 53 0 0.0 0.0 0.00 0.00 0.00 86 1018.7
20260509052514 54 0 0.0 0.0 0.00 0.00 0.00 86 1018.8
20260509052015 54 0 0.0 0.0 0.00 0.00 0.00 85 1018.8
20260509051514 54 0 0.0 0.0 0.00 0.00 0.00 84 1018.8
20260509051014 55 0 0.0 0.0 0.00 0.00 0.00 84 1018.8
20260509050514 55 0 0.0 0.0 0.00 0.00 0.00 83 1018.9
20260509050014 55 0 0.0 0.0 0.00 0.00 0.00 83 1018.8
20260509045515 55 0 0.0 0.0 0.00 0.00 0.00 82 1018.8
20260509045014 56 0 0.0 0.0 0.00 0.00 0.00 82 1018.8
20260509044514 56 0 0.0 4.0 0.00 0.00 0.00 82 1018.8
20260509044014 56 0 0.0 4.0 0.00 0.00 0.00 82 1018.6